Vancouver, WA
on Thursday, February 28, 2013

Thursday
Previous Day Next Day
Daily Summary
 ActualAverageRecord
Temperature
Mean Temperature °F 45°F  
Max Temperature 57°F 54°F 69°F (1901)
Min Temperature 45°F 36°F 23°F (1922)
Degree Days
Heating Degree Days 14    
Month to date heating degree days 609  
Since 1 July heating degree days 3032  
Cooling Degree Days 0    
Month to date cooling degree days 0  
Year to date cooling degree days 0  
Moisture
Dew Point 47°F   
Average Humidity 89    
Maximum Humidity 100    
Minimum Humidity 77    
Precipitation
Precipitation 0.17 in 0.16 in 1.46 in (2011)
Month to date precipitation 1.16 4.03  
Year to date precipitation 4.56 9.53  
Snow
Snow 0.00 in in in ()
Month to date snowfall 0.0  
Snow Depth 0.00 in   
Wind
Wind Speed 6 mph   
Max Wind Speed 13 mph   
Max Gust Speed 18 mph   
Visibility 8 miles   
Events Rain   

Key: T is trace of precipitation, MM is missing value
Source: NWS Daily Summary
Time(PST)TemperatureDew PointHumidity Pressure Visibility Wind DirectionWind SpeedGust SpeedPrecipitationEvents Conditions
12:20 AM 46.4°F 44.6°F 93% 30.24 in 3.0 miles ESE 4.6 mph - 0.03 in Rain Light Rain
12:31 AM 46.4°F 44.6°F 93% 30.24 in 4.0 miles ESE 4.6 mph - 0.03 in Rain Light Rain
12:53 AM 46.0°F 44.1°F 93% 30.23 in 4.0 miles ESE 6.9 mph - 0.04 in Rain Light Rain
1:13 AM 44.6°F 44.6°F 100% 30.23 in 3.0 miles ESE 5.8 mph - 0.01 in Rain Light Rain
1:44 AM 44.6°F 44.6°F 100% 30.23 in 2.5 miles ESE 6.9 mph - 0.02 in Rain Light Rain
1:53 AM 45.0°F 44.1°F 97% 30.23 in 2.5 miles SE 8.1 mph - 0.02 in Rain Light Rain
2:27 AM 44.6°F 44.6°F 100% 30.22 in 3.0 miles East 6.9 mph - 0.02 in Rain Light Rain
2:48 AM 44.6°F 44.6°F 100% 30.22 in 3.0 miles SE 3.5 mph - 0.02 in Rain Light Rain
2:53 AM 45.0°F 44.1°F 97% 30.22 in 3.0 miles Variable 4.6 mph - 0.02 in Rain Light Rain
2:59 AM 44.6°F 44.6°F 100% 30.22 in 2.5 miles ESE 5.8 mph - 0.01 in Rain Light Rain
3:12 AM 44.6°F 44.6°F 100% 30.22 in 3.0 miles ESE 3.5 mph - 0.02 in Rain Light Rain
3:53 AM 45.0°F 44.1°F 97% 30.21 in 3.0 miles ESE 6.9 mph - 0.03 in Rain Light Rain
4:28 AM 44.6°F 44.6°F 100% 30.21 in 5.0 miles ESE 6.9 mph - 0.01 in Rain Light Rain
4:36 AM 44.6°F 44.6°F 100% 30.21 in 7.0 miles ESE 6.9 mph - 0.01 in   Overcast
4:44 AM 44.6°F 44.6°F 100% 30.21 in 9.0 miles ESE 6.9 mph - 0.01 in   Overcast
4:53 AM 46.0°F 44.1°F 93% 30.21 in 10.0 miles ESE 6.9 mph - 0.01 in   Overcast
6:31 AM 50.0°F 46.4°F 87% 30.23 in 10.0 miles Variable 3.5 mph - N/A   Overcast
6:53 AM 51.1°F 46.9°F 86% 30.23 in 10.0 miles SSW 8.1 mph - N/A   Overcast
7:53 AM 51.1°F 46.9°F 86% 30.24 in 10.0 miles SSE 5.8 mph - 0.02 in Rain Light Rain
8:29 AM 46.4°F 44.6°F 93% 30.26 in 10.0 miles SE 4.6 mph - 0.01 in Rain Light Rain
8:53 AM 46.9°F 45.0°F 93% 30.26 in 10.0 miles ESE 4.6 mph - 0.01 in Rain Light Rain
9:53 AM 52.0°F 48.0°F 86% 30.28 in 9.0 miles Variable 6.9 mph - 0.01 in Rain Light Rain
10:01 AM 51.8°F 48.2°F 88% 30.28 in 10.0 miles Variable 4.6 mph - 0.00 in Rain Light Rain
10:53 AM 53.1°F 48.0°F 83% 30.28 in 10.0 miles SE 4.6 mph - 0.01 in Rain Light Rain
11:53 AM 54.0°F 48.0°F 80% 30.31 in 10.0 miles Variable 6.9 mph - 0.00 in Rain Light Rain
12:53 PM 55.0°F 48.0°F 77% 30.31 in 10.0 miles SSW 9.2 mph - 0.00 in   Overcast
1:53 PM 55.0°F 48.9°F 80% 30.31 in 10.0 miles SSW 6.9 mph - 0.00 in   Overcast
2:19 PM 55.4°F 50.0°F 82% 30.31 in 10.0 miles South 5.8 mph - N/A   Overcast
2:45 PM 55.4°F 50.0°F 82% 30.31 in 10.0 miles South 8.1 mph - 0.00 in   Overcast
2:53 PM 55.9°F 48.9°F 77% 30.32 in 10.0 miles South 9.2 mph - 0.00 in   Overcast
3:50 PM 55.4°F 50.0°F 82% 30.33 in 10.0 miles SSW 4.6 mph - 0.00 in   Overcast
3:53 PM 55.9°F 50.0°F 80% 30.34 in 10.0 miles SSW 6.9 mph - 0.00 in   Overcast
4:53 PM 55.9°F 51.1°F 84% 30.35 in 6.0 miles South 6.9 mph - 0.01 in Rain Light Rain
5:03 PM 55.4°F 51.8°F 88% 30.35 in 9.0 miles South 5.8 mph - 0.00 in   Overcast
5:53 PM 55.0°F 51.1°F 86% 30.36 in 10.0 miles South 6.9 mph - 0.00 in   Overcast
6:53 PM 55.9°F 50.0°F 80% 30.38 in 10.0 miles SSW 5.8 mph - 0.00 in   Overcast
7:53 PM 55.0°F 48.9°F 80% 30.40 in 10.0 miles SSW 8.1 mph - N/A   Overcast
8:53 PM 55.0°F 48.9°F 80% 30.40 in 10.0 miles South 4.6 mph - N/A   Overcast
9:53 PM 55.0°F 48.0°F 77% 30.42 in 10.0 miles SSE 4.6 mph - N/A   Overcast
10:09 PM 55.4°F 48.2°F 77% 30.43 in 10.0 miles SE 4.6 mph - N/A   Overcast
10:53 PM 55.0°F 48.9°F 80% 30.43 in 10.0 miles SSE 4.6 mph - N/A   Overcast
Moon Phase
Feb. 28 Mar. 04 Mar. 11 Mar. 19 Mar. 27
Sunrise:06:50 AM (PST) Moon Rise:09:43 PM (PST)
Sunset:05:56 PM (PST) Moon Set:07:51 AM (PST)

Copyright © 2014 The Weather Underground, Inc.